TimeAKST,TemperatureF,Dew PointF,Humidity,Sea Level PressureIn,VisibilityMPH,Wind Direction,Wind SpeedMPH,Gust SpeedMPH,PrecipitationIn,Events,Conditions,WindDirDegrees,DateUTC
12:09 AM,-31.0,-9999,N/A,29.96,9.0,Calm,Calm,-,N/A,,Clear,0,2012-12-02 09:09:00
12:10 AM,-31.0,-9999,N/A,29.96,9.0,Calm,Calm,-,N/A,,Clear,0,2012-12-02 09:10:00
12:55 AM,-32.1,-9999,N/A,29.96,10.0,Calm,Calm,-,N/A,,Clear,0,2012-12-02 09:55:00
1:55 AM,-34.2,-9999,N/A,29.96,10.0,Calm,Calm,-,N/A,,Clear,0,2012-12-02 10:55:00
2:24 AM,-32.8,-9999,N/A,29.96,4.0,SSE,3.5,-,N/A,,Haze,150,2012-12-02 11:24:00
2:26 AM,-34.6,-9999,N/A,29.96,3.0,SSE,3.5,-,N/A,,Clear,150,2012-12-02 11:26:00
2:39 AM,-34.6,-9999,N/A,29.95,4.0,SSE,3.5,-,N/A,,Haze,160,2012-12-02 11:39:00
2:46 AM,-34.6,-9999,N/A,29.95,4.0,South,4.6,-,N/A,,Haze,170,2012-12-02 11:46:00
2:48 AM,-34.6,-9999,N/A,29.95,4.0,South,3.5,-,N/A,,Haze,170,2012-12-02 11:48:00
2:55 AM,-34.2,-9999,N/A,29.95,6.0,Calm,Calm,-,N/A,,Haze,0,2012-12-02 11:55:00
3:09 AM,-34.6,-9999,N/A,29.95,4.0,Calm,Calm,-,N/A,,Haze,0,2012-12-02 12:09:00
3:27 AM,-32.8,-9999,N/A,29.95,3.0,Calm,Calm,-,N/A,,Scattered Clouds,0,2012-12-02 12:27:00
3:33 AM,-32.8,-9999,N/A,29.95,3.0,Calm,Calm,-,N/A,,Mostly Cloudy,0,2012-12-02 12:33:00
3:45 AM,-32.8,-9999,N/A,29.95,3.0,Calm,Calm,-,N/A,,Scattered Clouds,0,2012-12-02 12:45:00
3:55 AM,-33.5,-9999,N/A,29.95,3.0,Calm,Calm,-,N/A,,Scattered Clouds,0,2012-12-02 12:55:00
3:56 AM,-32.8,-9999,N/A,29.95,2.5,Calm,Calm,-,N/A,,Scattered Clouds,0,2012-12-02 12:56:00
4:00 AM,-32.8,-9999,N/A,29.95,2.5,Calm,Calm,-,N/A,,Scattered Clouds,0,2012-12-02 13:00:00
4:02 AM,-32.8,-9999,N/A,29.95,2.0,Calm,Calm,-,N/A,,Scattered Clouds,0,2012-12-02 13:02:00
4:15 AM,-32.8,-9999,N/A,29.95,2.5,Calm,Calm,-,N/A,,Partly Cloudy,0,2012-12-02 13:15:00
4:28 AM,-32.8,-9999,N/A,29.96,3.0,Calm,Calm,-,N/A,,Partly Cloudy,0,2012-12-02 13:28:00
4:39 AM,-32.8,-9999,N/A,29.95,3.0,Calm,Calm,-,N/A,,Mostly Cloudy,0,2012-12-02 13:39:00
4:46 AM,-32.8,-9999,N/A,29.95,3.0,Calm,Calm,-,N/A,,Mostly Cloudy,0,2012-12-02 13:46:00
4:55 AM,-33.3,-9999,N/A,29.95,3.0,Calm,Calm,-,N/A,,Mostly Cloudy,0,2012-12-02 13:55:00
4:57 AM,-32.8,-9999,N/A,29.94,3.0,Calm,Calm,-,N/A,,Mostly Cloudy,0,2012-12-02 13:57:00
4:59 AM,-32.8,-9999,N/A,29.94,3.0,Calm,Calm,-,N/A,,Scattered Clouds,0,2012-12-02 13:59:00
5:23 AM,-32.8,-9999,N/A,29.94,2.5,Calm,Calm,-,N/A,,Scattered Clouds,0,2012-12-02 14:23:00
5:26 AM,-32.8,-9999,N/A,29.95,2.5,Calm,Calm,-,N/A,,Scattered Clouds,0,2012-12-02 14:26:00
5:30 AM,-32.8,-9999,N/A,29.95,2.5,Calm,Calm,-,N/A,,Scattered Clouds,0,2012-12-02 14:30:00
5:34 AM,-32.8,-9999,N/A,29.95,3.0,Calm,Calm,-,N/A,,Scattered Clouds,0,2012-12-02 14:34:00
5:41 AM,-32.8,-9999,N/A,29.95,3.0,Calm,Calm,-,N/A,,Mostly Cloudy,0,2012-12-02 14:41:00
5:43 AM,-32.8,-9999,N/A,29.95,3.0,Calm,Calm,-,N/A,,Mostly Cloudy,0,2012-12-02 14:43:00
5:44 AM,-32.8,-9999,N/A,29.95,2.5,Calm,Calm,-,N/A,,Mostly Cloudy,0,2012-12-02 14:44:00
5:46 AM,-32.8,-9999,N/A,29.95,2.5,Calm,Calm,-,N/A,,Mostly Cloudy,0,2012-12-02 14:46:00
5:51 AM,-32.8,-9999,N/A,29.95,2.5,Calm,Calm,-,N/A,,Mostly Cloudy,0,2012-12-02 14:51:00
5:55 AM,-33.7,-9999,N/A,29.95,2.5,Calm,Calm,-,N/A,,Mostly Cloudy,0,2012-12-02 14:55:00
5:58 AM,-34.6,-9999,N/A,29.95,2.5,Calm,Calm,-,N/A,,Mostly Cloudy,0,2012-12-02 14:58:00
6:00 AM,-34.6,-9999,N/A,29.95,3.0,Calm,Calm,-,N/A,,Mostly Cloudy,0,2012-12-02 15:00:00
6:11 AM,-34.6,-9999,N/A,29.95,3.0,Calm,Calm,-,N/A,,Mostly Cloudy,0,2012-12-02 15:11:00
6:18 AM,-34.6,-9999,N/A,29.94,3.0,SSE,3.5,-,N/A,,Scattered Clouds,160,2012-12-02 15:18:00
6:26 AM,-36.4,-9999,N/A,29.95,4.0,SSE,3.5,-,N/A,,Haze,160,2012-12-02 15:26:00
6:39 AM,-36.4,-9999,N/A,29.94,5.0,Calm,Calm,-,N/A,,Haze,0,2012-12-02 15:39:00
6:43 AM,-36.4,-9999,N/A,29.95,5.0,Calm,Calm,-,N/A,,Haze,0,2012-12-02 15:43:00
6:46 AM,-34.6,-9999,N/A,29.94,5.0,Calm,Calm,-,N/A,,Haze,0,2012-12-02 15:46:00
6:50 AM,-34.6,-9999,N/A,29.95,5.0,Calm,Calm,-,N/A,,Haze,0,2012-12-02 15:50:00
6:55 AM,-34.6,-9999,N/A,29.95,5.0,Calm,Calm,-,N/A,,Haze,0,2012-12-02 15:55:00
7:55 AM,-35.7,-9999,N/A,29.94,5.0,Calm,Calm,-,N/A,,Haze,0,2012-12-02 16:55:00
8:55 AM,-35.7,-9999,N/A,29.94,2.0,Calm,Calm,-,0.00,,Clear,0,2012-12-02 17:55:00
9:28 AM,-34.6,-9999,N/A,29.86,1.0,SE,2.3,-,N/A,,Clear,140,2012-12-02 18:28:00
9:55 AM,-35.0,-9999,N/A,29.95,1.0,Calm,Calm,-,N/A,,Clear,0,2012-12-02 18:55:00
10:55 AM,-36.4,-9999,N/A,29.95,2.0,Calm,Calm,-,0.00,,Scattered Clouds,0,2012-12-02 19:55:00
11:55 AM,-35.3,-9999,N/A,29.96,3.0,Calm,Calm,-,N/A,,Haze,0,2012-12-02 20:55:00
12:55 PM,-32.1,-9999,N/A,29.97,5.0,Calm,Calm,-,0.00,,Clear,0,2012-12-02 21:55:00
1:55 PM,-31.9,-9999,N/A,29.97,5.0,Calm,Calm,-,N/A,,Clear,0,2012-12-02 22:55:00
2:55 PM,-32.3,-9999,N/A,29.98,6.0,Calm,Calm,-,0.00,,Partly Cloudy,0,2012-12-02 23:55:00
3:10 PM,-32.8,-9999,N/A,29.98,3.0,Calm,Calm,-,N/A,,Partly Cloudy,0,2012-12-03 00:10:00
3:55 PM,-31.7,-9999,N/A,29.99,6.0,Calm,Calm,-,N/A,,Haze,0,2012-12-03 00:55:00
4:55 PM,-33.9,-9999,N/A,30.01,6.0,Calm,Calm,-,N/A,,Haze,0,2012-12-03 01:55:00
5:55 PM,-34.4,-9999,N/A,30.01,10.0,Calm,Calm,-,N/A,,Clear,0,2012-12-03 02:55:00
6:55 PM,-35.9,-9999,N/A,30.02,10.0,Calm,Calm,-,0.00,,Clear,0,2012-12-03 03:55:00
7:55 PM,-37.3,-9999,N/A,30.04,10.0,Calm,Calm,-,N/A,,Clear,0,2012-12-03 04:55:00
8:55 PM,-38.0,-9999,N/A,30.05,10.0,South,3.5,-,N/A,,Clear,170,2012-12-03 05:55:00
9:55 PM,-38.0,-9999,N/A,30.07,10.0,Calm,Calm,-,N/A,,Clear,0,2012-12-03 06:55:00
10:55 PM,-37.8,-9999,N/A,30.08,10.0,Calm,Calm,-,N/A,,Clear,0,2012-12-03 07:55:00
11:55 PM,-37.8,-9999,N/A,30.10,10.0,Calm,Calm,-,N/A,,Clear,0,2012-12-03 08:55:00